Belize, Belize

5:47 PM CST on August 27, 2016 (GMT -0600)
Philip S W Goldson International

Weather History for MZBZ - June, 2013

Change the Weather History Date:

Sunday, June 9, 2013

  Actual Average Record
Temperature  
Mean Temperature 85 °F -  
Max Temperature 89 °F 89 °F 93 °F (2005)
Min Temperature 81 °F 77 °F 75 °F (2005)
Cooling Degree Days 20    
Growing Degree Days 35 (Base 50)    
Moisture  
Dew Point 77 °F    
Average Humidity 73    
Maximum Humidity 84    
Minimum Humidity 58    
Precipitation  
Precipitation 0.02 in 0.33 in - ()
Sea Level Pressure  
Sea Level Pressure 29.90 in    
Wind  
Wind Speed 7 mph ()    
Max Wind Speed 13 mph    
Max Gust Speed -    
Visibility 8.2 miles    
Events      
Averages and records for this station are not official NWS values.
T = Trace of Precipitation, MM = Missing Value Source: Averaged Metar Reports

Daily Weather History Graph

Daily Weather History Graph

Search for Another Location

Airport or City:

Trip Planner

Search our weather history database for the weather conditions in past years. The results will help you decide how hot, cold, wet, or windy it might be!

Date:

Astronomy

Jun. 09, 2013 Rise Set
Actual Time 5:17 AM CST 6:27 PM CST
Civil Twilight 4:53 AM CST 6:51 PM CST
Nautical Twilight 4:25 AM CST 7:19 PM CST
Astronomical Twilight 3:56 AM CST 7:49 PM CST
Moon 6:06 AM CST (6/9) 7:23 PM CST (6/9)
Length of Visible Light 13h 57m
Length of Day
13h 09m
New Moon, 1% of the Moon is Illuminated
Jun 9
New Moon
Jun 16
First Quarter
Jun 23
Full
Jun 29
Last Quarter
Jul 8
New

Hourly Weather History & Observations

Time (CST) Temp. Heat Index Dew Point Humidity Pressure Visibility Wind Dir Wind Speed Gust Speed Precip Events Conditions
12:00 AM 83 °F - 77 °F 77% 29.92 in 12 mi ESE 6.9 mph - -   Mostly Cloudy
3:00 AM 83 °F - 77 °F 79% 29.88 in 12 mi East 9.2 mph - -   Scattered Clouds
5:00 AM 82.4 °F 90.9 °F 77.0 °F 84% 29.89 in 6.2 mi East 6.9 mph - N/A   Mostly Cloudy
6:00 AM 82 °F - 77 °F 81% 29.91 in 12 mi East 5.8 mph - -   Partly Cloudy
6:00 AM 82.4 °F 90.9 °F 77.0 °F 84% 29.89 in 6.2 mi East 5.8 mph - N/A   Mostly Cloudy
7:00 AM 84.2 °F 94.1 °F 77.0 °F 79% 29.92 in 6.2 mi East 9.2 mph - N/A   Mostly Cloudy
8:00 AM 84.2 °F 94.1 °F 77.0 °F 79% 29.92 in 6.2 mi ESE 6.9 mph - N/A   Mostly Cloudy
9:00 AM 86 °F - 77 °F 68% 29.93 in 11 mi ESE 10.4 mph - -   Mostly Cloudy
9:00 AM 86.0 °F 96.9 °F 77.0 °F 74% 29.92 in 6.2 mi ESE 10.4 mph - N/A   Mostly Cloudy
10:00 AM 86.0 °F 96.9 °F 77.0 °F 74% 29.93 in 6.2 mi ESE 8.1 mph - N/A   Mostly Cloudy
11:00 AM 87.8 °F 99.7 °F 77.0 °F 70% 29.93 in 6.2 mi ESE 8.1 mph - N/A   Mostly Cloudy
12:00 PM 89 °F - 76 °F 58% 29.92 in 11 mi ESE 9.2 mph - -   Partly Cloudy
12:00 PM 89.6 °F 102.2 °F 77.0 °F 66% 29.91 in 6.2 mi ESE 9.2 mph - N/A   Mostly Cloudy
1:00 PM 87.8 °F 97.6 °F 75.2 °F 66% 29.90 in 6.2 mi ESE 9.2 mph - N/A   Mostly Cloudy
2:00 PM 87.8 °F 97.6 °F 75.2 °F 66% 29.88 in 6.2 mi East 10.4 mph - N/A   Mostly Cloudy
3:00 PM 87 °F - 78 °F 67% 29.86 in 12 mi East 11.5 mph - -   Partly Cloudy
3:00 PM 87.8 °F 99.7 °F 77.0 °F 70% 29.85 in 6.2 mi East 11.5 mph - N/A   Mostly Cloudy
4:00 PM 87.8 °F 99.7 °F 77.0 °F 70% 29.85 in 6.2 mi East 12.7 mph - N/A   Mostly Cloudy
5:00 PM 86.0 °F 96.9 °F 77.0 °F 74% 29.85 in 6.2 mi East 9.2 mph - N/A   Mostly Cloudy
6:00 PM 85 °F - 77 °F 71% 29.87 in 12 mi East 9.2 mph - -   Partly Cloudy
6:00 PM 84.2 °F 94.1 °F 77.0 °F 79% 29.86 in 6.2 mi East 9.2 mph - N/A   Mostly Cloudy
9:00 PM 83 °F - 76 °F 75% 29.94 in 12 mi East 9.2 mph - -   Partly Cloudy